Location: Foul Point
(8.5167°N, 81.3167°E)
Time: 14:23:02
(UTC+00:00)

Daily predictions for brighter satellites

Satellite Brightness Start Highest point End
(mag) Time Altitude Azimuth Time Altitude Azimuth Time Altitude Azimuth
CZ-3C R/B 3.8 12:37:07 10° SSW 12:42:03 31° SE 13:06:24 10° E
Ariane H10 3.2 13:12:01 10° WSW 13:15:23 45° SSE 13:26:29 10° E
Cosmos 1553 Rocket 4.0 13:11:26 10° N 13:17:30 73° E 13:23:40 10° S
H-2A R/B 3.3 13:15:22 10° WSW 13:17:34 20° SSW 13:22:19 10° SSE
Exosat Rocket 4.0 13:14:10 10° NNW 13:19:04 68° WSW 13:24:35 10° S
Cosmos 1937 Rocket 4.5 13:17:30 10° NNE 13:22:01 29° ENE 13:26:30 10° SE
Milstar 3 Cent rocket 3.2 13:19:30 10° NW 13:23:37 29° NNE 13:28:09 10° E
CZ-2C R/B 3.8 13:20:30 10° NE 13:24:07 19° E 13:27:44 10° SE
CZ-2D R/B 3.2 13:21:45 10° SSE 13:25:34 70° ENE 13:29:22 10° N
S3M 4.1 13:20:30 10° N 13:26:47 60° E 13:33:02 10° SSE
CZ-4 R/B 1.3 13:27:15 10° SSE 13:31:19 88° E 13:35:17 10° N
Cosmos 1892 Rocket 3.6 13:27:59 10° S 13:32:18 85° W 13:36:38 10° N
CSL-04 Rocket 4.0 13:29:02 10° SSE 13:34:19 47° ENE 13:39:33 10° N
Mugunghwa Rocket 4.1 13:31:40 10° SW 13:37:48 53° SSE 13:44:17 10° ENE
Spelda 30 3.5 13:36:34 10° WSW 13:38:55 35° S 13:42:34 14° ESE
deb Ariane 4.3 13:35:37 10° WSW 13:41:42 33° S 13:43:27 17° SE
Cosmos 1939 Rocket 3.9 13:38:01 10° S 13:41:58 48° W 13:45:53 10° NNW
YAOGAN 1 2.6 13:38:06 10° S 13:42:25 87° WSW 13:46:44 10° NNW
SL-24 R/B - RUBIN 2 4.0 13:39:48 10° SSW 13:44:55 85° ESE 13:50:48 10° NNE
USA 215 3.8 13:40:39 10° ENE 13:46:21 33° SE 13:52:03 10° S
Intelsat 5-1 Rocket 2.3 13:39:53 10° WNW 13:46:46 63° NNE 13:48:59 19° E
Atlas 2A Centaur Rocket 4.2 13:42:33 10° SSW 13:47:12 39° SE 14:06:55 10° ENE
Hubble Space Telescope 2.9 13:44:28 10° W 13:47:55 25° NNW 13:51:21 10° NNE
Cosmos 1626 Rocket 4.0 13:45:26 10° SSE 13:49:33 39° E 13:53:41 10° NNE
Cosmos 1244 Rocket 4.5 13:46:29 10° S 13:52:31 61° E 13:58:32 10° NNE
SEDSat Delta rocket 3.6 13:49:57 10° SW 13:55:05 61° SE 14:01:00 10° ENE
Cosmos 2058 Rocket 3.8 13:55:44 10° NNE 13:59:42 32° E 14:01:13 25° ESE
Meteor 2-21 Rocket 4.4 13:53:50 10° S 13:59:59 67° E 14:06:07 10° NNE
Cosmos 2322 Rocket 4.2 13:55:22 10° SW 14:00:12 30° WNW 14:05:02 10° NNW
Ariane H10 3.2 13:58:45 10° SW 14:00:44 17° S 14:00:51 17° SSE
CZ-3A R/B 4.4 13:22:41 10° WSW 14:00:49 65° SSE 14:07:52 16° E
Cosmos 1908 4.2 14:02:17 10° NNW 14:06:03 48° W 14:09:49 10° SSW
CZ-2C R/B 4.0 14:02:55 10° NNE 14:07:28 46° E 14:11:29 13° S
Cosmos 2228 3.2 14:03:25 10° N 14:07:47 74° W 14:12:10 10° S
SJ 16-02 3.5 14:04:40 10° NW 14:08:17 25° W 14:11:54 10° SSW
SJ-11-01 4.2 14:07:27 15° SSE 14:11:22 86° ENE 14:16:02 10° N
Cosmos 1356 Rocket 3.6 14:13:02 10° N 14:17:00 45° E 14:17:25 44° ESE
Meteor 2-15 Rocket 4.4 14:12:29 10° N 14:18:33 86° W 14:24:37 10° S
Ariane Rocket 3.3 14:17:24 34° ESE 14:19:03 47° ENE 14:23:54 10° N
Meteor 1-21 Rocket 4.3 14:13:35 10° S 14:19:20 62° E 14:25:08 10° NNE
NOSS 3-1 (C) 4.3 14:14:42 10° NNW 14:23:23 82° ENE 14:29:21 24° SSE
CZ-2C R/B 3.4 14:18:42 12° S 14:24:09 77° WSW 14:29:49 10° NNW
Meteor 2-16 Rocket 4.4 14:20:22 10° S 14:26:27 83° W 14:32:31 10° N
COSMOS 2428 2.8 14:25:12 26° SSE 14:28:06 48° ESE 14:33:31 10° NNE
USA 186 2.3 14:28:53 52° NNE 14:28:53 52° NNE 14:31:32 10° N
Cosmos 2322 3.7 14:23:06 10° SSW 14:28:48 82° WNW 14:34:31 10° NNE
Cosmos 2150 Rocket 4.5 14:24:56 10° N 14:29:51 40° ENE 14:30:01 40° E
Cosmos 1300 2.5 14:26:32 10° N 14:30:20 82° E 14:30:25 81° ESE
BREEZE M DEB (TANK) 3.4 14:30:13 10° WSW 14:32:18 30° NW 14:35:11 10° NNE
Cosmos 2219 Rocket 2.1 14:26:54 10° S 14:32:24 63° ESE 14:37:53 10° NNE
IRS-1A Rocket 4.1 14:34:05 45° SE 14:35:46 70° ENE 14:41:14 10° N
Cosmos 2360 Rocket 4.2 14:31:23 10° SW 14:36:09 29° WNW 14:40:57 10° NNW
Delta 142 3.4 14:31:28 10° WNW 14:36:32 81° SSW 14:36:53 74° SSE
NOSS 3-3 (A) 4.4 14:31:39 10° SW 14:37:03 54° WNW 14:42:38 10° NNE
NOSS 3-3 (C) 4.3 14:31:43 10° SW 14:37:09 55° WNW 14:42:45 10° NNE
USA 229 DEB 3.9 14:31:45 10° NNW 14:39:24 89° WSW 14:43:04 35° SSE
USA 229 3.9 14:31:50 10° NNW 14:39:30 90° WSW 14:43:08 36° SSE
MOS 1 4.3 14:38:28 52° ESE 14:39:33 62° ENE 14:45:07 10° N
Cosmos 2315 Rocket 4.4 14:33:53 10° NNW 14:40:08 62° W 14:45:50 13° S
USA 234 4.2 14:35:58 19° S 14:40:16 40° SW 14:46:20 10° WNW
Cosmos 1602 Rocket 4.3 14:37:51 15° SSW 14:41:17 51° W 14:45:34 10° N
ARIANE 5 R/B 3.2 14:26:18 10° W 14:42:24 45° SSW 14:43:02 43° S
ARGOS 3.3 14:41:30 34° S 14:43:54 72° WSW 14:49:18 10° NNW
Cosmos 2263 Rocket 2.0 14:41:39 10° NNW 14:47:12 77° ENE 14:47:45 69° SE
DELTA-4 R/B 3.5 14:45:09 10° W 14:48:43 67° N 14:52:24 31° ENE
Ariane 44P Rocket 3.7 14:44:14 10° WSW 14:48:03 28° SW 14:48:03 28° SW
Cosmos 1386 Rocket 4.4 14:45:36 28° S 14:49:07 87° E 14:55:31 10° N
ARIANE 5 DEB (SYLDA) 3.9 14:44:40 10° WSW 14:49:22 39° SSE 14:49:39 39° SSE
H-2A R/B 3.1 14:46:07 18° SSW 14:49:44 44° W 14:54:53 10° NNW
NOSS 3-1 (A) 4.2 14:41:35 10° NNW 14:50:16 79° ENE 14:53:33 45° SE
SJ-6B 3.9 14:54:24 42° NNW 14:54:24 42° NNW 14:57:05 10° NNW
GPS 2-12 Rocket1 3.9 14:48:21 10° WSW 14:51:44 43° SW 14:51:44 43° SW
Cosmos 2333 Rocket 2.4 14:47:50 10° SSW 14:53:26 68° WNW 14:59:04 10° N
GEOS 3 Rocket 4.1 14:52:53 10° NNE 14:58:10 60° WNW 15:03:22 10° SW
Cosmos 2285 Rocket 4.4 14:53:15 10° NNW 14:59:24 58° WSW 15:01:42 37° SSW
Cosmos 2298 Rocket 4.4 15:05:18 10° NNW 15:10:23 58° W 15:10:23 58° W
ATLAS CENTAUR R/B 3.9 15:17:05 10° NNW 15:18:55 31° N 15:18:55 31° N
Resurs 01 Rocket 4.3 15:25:54 13° N 15:25:54 13° N 15:26:25 10° N
USA 215 4.5 15:23:12 10° NNE 15:29:08 38° NW 15:35:04 10° WSW
Milstar 3 Cent rocket 4.4 15:56:26 10° W 15:57:53 19° W 15:57:53 19° W
USA 238 DEB 4.5 21:35:52 42° E 21:35:52 42° E 21:41:12 10° NE
CZ-3B R/B 4.2 21:46:53 42° NW 21:48:27 44° NNW 21:54:00 10° NE
Cosmos 1464 Rocket 4.0 22:03:22 78° E 22:03:25 78° E 22:09:46 10° N
Ariane H10+ 3.6 22:04:02 70° SE 22:04:02 70° SE 22:20:31 10° E
CENTAUR R/B 3.3 22:04:00 32° ESE 22:04:30 33° ESE 22:09:27 10° NE
Cosmos 2034 Rocket 4.4 22:08:59 43° SE 22:10:45 58° E 22:16:46 10° NNE
CZ-2C R/B 2.7 22:13:06 10° NNE 22:17:03 59° NE 22:17:03 59° NE
Hubble Space Telescope 3.0 22:20:48 18° ESE 22:20:48 18° ESE 22:21:59 10° ESE
Meteor 1-23 Rocket 4.4 22:13:49 10° N 22:19:33 71° E 22:21:56 37° SSE
Cosmos 1072 Rocket 4.5 22:20:26 64° WNW 22:20:26 64° WNW 22:26:23 10° N
CZ-3A R/B 2.6 22:21:40 73° NNW 22:21:43 73° NNW 22:33:44 10° ENE
H-2A R/B (2) 4.2 22:33:47 10° NW 22:33:47 10° NW 22:34:14 10° NNW
NOSS 3-2 (C) 3.0 22:33:25 62° SSW 22:34:20 86° ESE 22:39:54 10° NNE
PAYLOAD A 4.2 22:29:53 10° N 22:35:10 58° WNW 22:35:13 58° W
OAO 3 Copernicus 4.4 22:36:39 36° NW 22:38:41 73° NE 22:43:41 10° ESE
Cosmos 1697 Rocket 3.2 22:36:53 10° N 22:42:22 60° ENE 22:47:52 10° SSE
ARIANE R/B 3.2 22:43:43 55° S 22:43:43 55° S 22:47:41 10° ESE
ATLAS 3B R/B 4.2 22:41:20 10° S 22:47:10 31° ESE 22:52:53 10° NE
Okean 2 Rocket 3.6 22:46:04 22° SSE 22:48:46 56° E 22:53:04 10° NNE
ERBS 3.1 22:50:23 41° N 22:50:23 41° N 22:52:49 10° NNE
NOSS 3-2 (A) 4.0 22:50:04 31° WNW 22:50:17 31° WNW 22:55:10 10° N
Meteor 2-9 Rocket 4.2 22:50:34 45° WSW 22:51:35 52° W 22:56:45 10° N
SAR-Lupe-4 4.4 22:53:13 10° SSE 22:56:41 50° ENE 23:00:07 10° N
H-2A R/B 3.1 23:00:50 29° WNW 23:00:50 29° WNW 23:03:42 10° NW
Orbus 7S? 3.3 22:56:33 10° NW 23:02:12 58° WSW 23:05:08 10° SSE
DELTA 2 R/B (1) 3.6 23:00:14 19° WNW 23:04:07 56° SW 23:09:36 10° SE
SL-27 R/B 4.4 23:07:28 17° NW 23:07:28 17° NW 23:08:59 10° NNW
CZ-4B R/B 3.7 23:02:38 10° N 23:06:39 82° W 23:08:46 26° SSW
Cosmos 1378 3.8 23:03:49 10° NNW 23:06:52 35° WNW 23:06:52 35° WNW
Cosmos 1975 Rocket 3.5 23:05:23 10° N 23:09:46 63° E 23:14:12 10° SSE
Cosmos 2151 Rocket 3.7 23:08:01 10° S 23:12:32 78° E 23:17:03 10° N
SAR-Lupe-1 3.9 23:10:16 10° SSE 23:13:48 89° E 23:17:22 10° NNW
FENGYUN 3A 3.6 23:09:05 10° N 23:14:30 86° WNW 23:19:54 10° SSW
Cosmos 1271 Rocket 2.6 23:12:53 10° N 23:16:36 85° E 23:20:20 10° S
Cosmos 192 4.3 23:12:46 10° NNW 23:17:32 56° WSW 23:22:19 10° S
DEBRIS 3.5 23:12:28 17° SW 23:19:26 82° NW 23:22:35 10° NE
Cosmos 1763 Rocket 4.3 23:15:54 10° N 23:21:04 56° ENE 23:26:16 10° SSE
CZ-4B R/B 1.3 23:18:35 10° S 23:21:55 67° W 23:25:17 10° NNW
Meteor 1-12 Rocket 4.2 23:17:36 10° SSW 23:23:08 60° W 23:28:42 10° N
Cosmos 468 Rocket 4.3 23:18:10 10° N 23:23:27 74° ENE 23:28:44 10° SSE
Okean 2 3.6 23:25:42 10° NNW 23:29:35 45° W 23:33:28 10° SSW
GPS 2-12 Rocket1 3.3 23:27:56 10° WNW 23:32:28 68° NNE 23:36:53 10° ESE
Cosmos 839 Rocket 4.0 23:27:29 10° SSW 23:33:35 76° WNW 23:40:08 10° NNE
Cosmos 968 Rocket 3.4 23:28:53 10° SSW 23:34:04 75° WNW 23:39:12 10° N
Spot 2 4.5 23:29:14 10° N 23:34:09 64° WNW 23:39:14 10° SSW
Meteor 1-31 Rocket 3.9 23:33:41 10° NNW 23:36:59 26° WNW 23:39:36 14° SW
Cosmos 1707 4.0 23:36:33 10° NNE 23:40:16 44° E 23:43:59 10° SSE
Nadezhda 4 Rocket 4.2 23:35:19 10° NNW 23:41:25 52° W 23:47:30 10° SSW
Meteor PRIRODA 3.8 23:38:05 10° N 23:41:38 51° WNW 23:45:11 10° SSW
Cosmos 2369 4.3 23:36:58 10° NW 23:42:02 33° WSW 23:47:08 10° SSW
Cosmos 2142 Rocket 4.4 23:36:39 10° S 23:42:43 70° W 23:48:49 10° N
Ariane 42L Rocket 2.0 23:42:58 13° S 23:43:00 13° S 23:43:43 10° SSE
Cosmos 1486 Rocket 4.5 23:40:04 10° SSW 23:45:04 42° WNW 23:50:03 10° N
Cosmos 1242 Rocket 4.4 23:43:54 10° WNW 23:45:26 12° W 23:46:06 12° WSW
SJ-12 4.4 23:45:54 10° N 23:49:43 40° WNW 23:53:33 10° SSW
H-2A R/B 2.5 23:47:41 10° N 23:51:46 57° WNW 23:55:43 10° SSW
Cosmos 1484 Rocket 4.5 23:49:54 10° NW 23:52:13 16° WNW 23:54:31 10° WSW
Palapa 6 Rocket 3.4 23:48:25 11° WSW 23:52:58 80° NNW 23:58:44 10° ENE
ALOS 3.4 23:50:27 10° NNW 23:54:13 25° WNW 23:57:59 10° SW
CENTAUR R/B 3.8 23:51:38 10° W 23:54:56 16° WNW 23:58:25 10° NNW
